Powrót do katalogu

CZ-6A DEB

AktywnyPO
NORAD 61154·DEBRIS·🇨🇳 China

Wystrzelony Aug 6, 2024 z Taiyuan Satellite Launch Center

Loading…

Następne Przeloty (najbliższe 24 godziny)

TLE

ŚwieżeSource: Space-Track

Epoka: Sep 14, 2026, 08:09 UTC

1 61154U 24140QY  26257.34023067  .00003411  00000-0  54846-3 0  9994
2 61154  89.2634 284.2346 0124409 305.7986  53.1717 14.66304381110022

Śledź CZ-6A DEB w czasie rzeczywistym z AllMySat

Download on the App Store